{"data":{"norad_id":62659,"epoch":"2026-05-24T19:15:30.987072Z","epoch_age_seconds":88132,"freshness":"FRESH","line1":"1 62659U 25009BC  26144.80244198  .00028846  00000+0  10411-2 0  9993","line2":"2 62659  97.3951 226.2415 0003492  66.6869 293.4737 15.28454415132937","mean_motion":15.28454415,"eccentricity":0.0003492,"inclination_deg":97.3951,"raan_deg":226.2415,"arg_perigee_deg":66.6869,"mean_anomaly_deg":293.4737,"bstar":0.0010411,"rev_number":13293,"period_min":94.212819556022,"perigee_km":478.03701899524,"apogee_km":482.8270436067,"semimajor_km":6858.569031301,"source":"CELESTRAK","updated_at":"2026-05-25T13:38:13.340639Z"}}